<?xml version="1.0"?>
<gpx xmlns="http://www.topografix.com/GPX/1/1" xmlns:xsi="http://www.w3.org/2001/XMLSchema-instance" version="1.1" creator="GPX RubyGem 1.0.0 -- http://dougfales.github.io/gpx/" xsi:schemaLocation="http://www.topografix.com/GPX/1/1 http://www.topografix.com/GPX/1/1/gpx.xsd">
  <metadata>
    <name/>
    <time>2026-05-07T22:32:07+00:00</time>
    <bound minlat="90.0" minlon="180.0" maxlat="-90.0" maxlon="-180.0"/>
  </metadata>
  <trk>
    <name/>
    <trkseg>
      <trkpt lat="46.663567" lon="9.540871">
        <time>1970-01-01T00:00:00+00:00</time>
        <ele>1376.0</ele>
      </trkpt>
      <trkpt lat="46.663667" lon="9.540717">
        <time>1970-01-01T00:00:00+00:00</time>
        <ele>1378.0</ele>
      </trkpt>
      <trkpt lat="46.663598" lon="9.540613">
        <time>1970-01-01T00:00:00+00:00</time>
        <ele>1379.0</ele>
      </trkpt>
      <trkpt lat="46.663449" lon="9.540335">
        <time>1970-01-01T00:00:00+00:00</time>
        <ele>1383.0</ele>
      </trkpt>
      <trkpt lat="46.663422" lon="9.540227">
        <time>1970-01-01T00:00:00+00:00</time>
        <ele>1386.0</ele>
      </trkpt>
      <trkpt lat="46.663428" lon="9.54">
        <time>1970-01-01T00:00:00+00:00</time>
        <ele>1389.0</ele>
      </trkpt>
      <trkpt lat="46.663455" lon="9.539744">
        <time>1970-01-01T00:00:00+00:00</time>
        <ele>1390.0</ele>
      </trkpt>
      <trkpt lat="46.663493" lon="9.539573">
        <time>1970-01-01T00:00:00+00:00</time>
        <ele>1390.0</ele>
      </trkpt>
      <trkpt lat="46.663681" lon="9.539087">
        <time>1970-01-01T00:00:00+00:00</time>
        <ele>1393.0</ele>
      </trkpt>
      <trkpt lat="46.663777" lon="9.538502">
        <time>1970-01-01T00:00:00+00:00</time>
        <ele>1401.0</ele>
      </trkpt>
      <trkpt lat="46.663757" lon="9.538315">
        <time>1970-01-01T00:00:00+00:00</time>
        <ele>1404.0</ele>
      </trkpt>
      <trkpt lat="46.663704" lon="9.538187">
        <time>1970-01-01T00:00:00+00:00</time>
        <ele>1407.0</ele>
      </trkpt>
      <trkpt lat="46.663511" lon="9.537956">
        <time>1970-01-01T00:00:00+00:00</time>
        <ele>1413.0</ele>
      </trkpt>
      <trkpt lat="46.663493" lon="9.537855">
        <time>1970-01-01T00:00:00+00:00</time>
        <ele>1414.0</ele>
      </trkpt>
      <trkpt lat="46.66351" lon="9.537753">
        <time>1970-01-01T00:00:00+00:00</time>
        <ele>1413.0</ele>
      </trkpt>
      <trkpt lat="46.663577" lon="9.537666">
        <time>1970-01-01T00:00:00+00:00</time>
        <ele>1412.0</ele>
      </trkpt>
      <trkpt lat="46.663678" lon="9.537603">
        <time>1970-01-01T00:00:00+00:00</time>
        <ele>1410.0</ele>
      </trkpt>
      <trkpt lat="46.663834" lon="9.537549">
        <time>1970-01-01T00:00:00+00:00</time>
        <ele>1409.0</ele>
      </trkpt>
      <trkpt lat="46.663933" lon="9.537471">
        <time>1970-01-01T00:00:00+00:00</time>
        <ele>1409.0</ele>
      </trkpt>
      <trkpt lat="46.663997" lon="9.537357">
        <time>1970-01-01T00:00:00+00:00</time>
        <ele>1410.0</ele>
      </trkpt>
      <trkpt lat="46.664347" lon="9.53637">
        <time>1970-01-01T00:00:00+00:00</time>
        <ele>1424.0</ele>
      </trkpt>
      <trkpt lat="46.664371" lon="9.536208">
        <time>1970-01-01T00:00:00+00:00</time>
        <ele>1427.0</ele>
      </trkpt>
      <trkpt lat="46.664352" lon="9.535961">
        <time>1970-01-01T00:00:00+00:00</time>
        <ele>1435.0</ele>
      </trkpt>
      <trkpt lat="46.664372" lon="9.5358">
        <time>1970-01-01T00:00:00+00:00</time>
        <ele>1440.0</ele>
      </trkpt>
      <trkpt lat="46.664446" lon="9.535694">
        <time>1970-01-01T00:00:00+00:00</time>
        <ele>1441.0</ele>
      </trkpt>
      <trkpt lat="46.665023" lon="9.535453">
        <time>1970-01-01T00:00:00+00:00</time>
        <ele>1434.0</ele>
      </trkpt>
      <trkpt lat="46.665157" lon="9.535255">
        <time>1970-01-01T00:00:00+00:00</time>
        <ele>1442.0</ele>
      </trkpt>
      <trkpt lat="46.66525" lon="9.534927">
        <time>1970-01-01T00:00:00+00:00</time>
        <ele>1449.0</ele>
      </trkpt>
      <trkpt lat="46.665275" lon="9.534577">
        <time>1970-01-01T00:00:00+00:00</time>
        <ele>1454.0</ele>
      </trkpt>
      <trkpt lat="46.665262" lon="9.534233">
        <time>1970-01-01T00:00:00+00:00</time>
        <ele>1458.0</ele>
      </trkpt>
      <trkpt lat="46.665322" lon="9.533941">
        <time>1970-01-01T00:00:00+00:00</time>
        <ele>1461.0</ele>
      </trkpt>
      <trkpt lat="46.665397" lon="9.533809">
        <time>1970-01-01T00:00:00+00:00</time>
        <ele>1461.0</ele>
      </trkpt>
      <trkpt lat="46.665837" lon="9.533211">
        <time>1970-01-01T00:00:00+00:00</time>
        <ele>1468.0</ele>
      </trkpt>
      <trkpt lat="46.665992" lon="9.532841">
        <time>1970-01-01T00:00:00+00:00</time>
        <ele>1469.0</ele>
      </trkpt>
      <trkpt lat="46.666041" lon="9.532566">
        <time>1970-01-01T00:00:00+00:00</time>
        <ele>1471.0</ele>
      </trkpt>
      <trkpt lat="46.666014" lon="9.53242">
        <time>1970-01-01T00:00:00+00:00</time>
        <ele>1477.0</ele>
      </trkpt>
      <trkpt lat="46.665617" lon="9.5326">
        <time>1970-01-01T00:00:00+00:00</time>
        <ele>1476.0</ele>
      </trkpt>
      <trkpt lat="46.665163" lon="9.532577">
        <time>1970-01-01T00:00:00+00:00</time>
        <ele>1486.0</ele>
      </trkpt>
      <trkpt lat="46.663681" lon="9.533819">
        <time>1970-01-01T00:00:00+00:00</time>
        <ele>1521.0</ele>
      </trkpt>
      <trkpt lat="46.663407" lon="9.53398">
        <time>1970-01-01T00:00:00+00:00</time>
        <ele>1521.0</ele>
      </trkpt>
      <trkpt lat="46.663089" lon="9.534045">
        <time>1970-01-01T00:00:00+00:00</time>
        <ele>1521.0</ele>
      </trkpt>
      <trkpt lat="46.662765" lon="9.534">
        <time>1970-01-01T00:00:00+00:00</time>
        <ele>1522.0</ele>
      </trkpt>
      <trkpt lat="46.661637" lon="9.533981">
        <time>1970-01-01T00:00:00+00:00</time>
        <ele>1533.0</ele>
      </trkpt>
      <trkpt lat="46.661444" lon="9.533914">
        <time>1970-01-01T00:00:00+00:00</time>
        <ele>1537.0</ele>
      </trkpt>
      <trkpt lat="46.661181" lon="9.533822">
        <time>1970-01-01T00:00:00+00:00</time>
        <ele>1548.0</ele>
      </trkpt>
      <trkpt lat="46.660217" lon="9.533652">
        <time>1970-01-01T00:00:00+00:00</time>
        <ele>1579.0</ele>
      </trkpt>
      <trkpt lat="46.659966" lon="9.533568">
        <time>1970-01-01T00:00:00+00:00</time>
        <ele>1585.0</ele>
      </trkpt>
      <trkpt lat="46.659667" lon="9.533413">
        <time>1970-01-01T00:00:00+00:00</time>
        <ele>1596.0</ele>
      </trkpt>
      <trkpt lat="46.65907" lon="9.533031">
        <time>1970-01-01T00:00:00+00:00</time>
        <ele>1609.0</ele>
      </trkpt>
      <trkpt lat="46.658974" lon="9.532792">
        <time>1970-01-01T00:00:00+00:00</time>
        <ele>1613.0</ele>
      </trkpt>
      <trkpt lat="46.658731" lon="9.532594">
        <time>1970-01-01T00:00:00+00:00</time>
        <ele>1616.0</ele>
      </trkpt>
      <trkpt lat="46.658583" lon="9.532549">
        <time>1970-01-01T00:00:00+00:00</time>
        <ele>1618.0</ele>
      </trkpt>
      <trkpt lat="46.659023" lon="9.532481">
        <time>1970-01-01T00:00:00+00:00</time>
        <ele>1619.0</ele>
      </trkpt>
      <trkpt lat="46.659295" lon="9.532414">
        <time>1970-01-01T00:00:00+00:00</time>
        <ele>1622.0</ele>
      </trkpt>
      <trkpt lat="46.659541" lon="9.532304">
        <time>1970-01-01T00:00:00+00:00</time>
        <ele>1628.0</ele>
      </trkpt>
      <trkpt lat="46.659634" lon="9.532199">
        <time>1970-01-01T00:00:00+00:00</time>
        <ele>1632.0</ele>
      </trkpt>
      <trkpt lat="46.659793" lon="9.53191">
        <time>1970-01-01T00:00:00+00:00</time>
        <ele>1638.0</ele>
      </trkpt>
      <trkpt lat="46.660076" lon="9.531711">
        <time>1970-01-01T00:00:00+00:00</time>
        <ele>1640.0</ele>
      </trkpt>
      <trkpt lat="46.660137" lon="9.531605">
        <time>1970-01-01T00:00:00+00:00</time>
        <ele>1642.0</ele>
      </trkpt>
      <trkpt lat="46.65997" lon="9.531564">
        <time>1970-01-01T00:00:00+00:00</time>
        <ele>1644.0</ele>
      </trkpt>
      <trkpt lat="46.659795" lon="9.531601">
        <time>1970-01-01T00:00:00+00:00</time>
        <ele>1643.0</ele>
      </trkpt>
      <trkpt lat="46.659552" lon="9.531572">
        <time>1970-01-01T00:00:00+00:00</time>
        <ele>1641.0</ele>
      </trkpt>
      <trkpt lat="46.659213" lon="9.531466">
        <time>1970-01-01T00:00:00+00:00</time>
        <ele>1643.0</ele>
      </trkpt>
      <trkpt lat="46.659016" lon="9.531343">
        <time>1970-01-01T00:00:00+00:00</time>
        <ele>1649.0</ele>
      </trkpt>
      <trkpt lat="46.658919" lon="9.531332">
        <time>1970-01-01T00:00:00+00:00</time>
        <ele>1650.0</ele>
      </trkpt>
      <trkpt lat="46.658643" lon="9.531525">
        <time>1970-01-01T00:00:00+00:00</time>
        <ele>1648.0</ele>
      </trkpt>
      <trkpt lat="46.65842" lon="9.531487">
        <time>1970-01-01T00:00:00+00:00</time>
        <ele>1651.0</ele>
      </trkpt>
      <trkpt lat="46.658323" lon="9.531399">
        <time>1970-01-01T00:00:00+00:00</time>
        <ele>1655.0</ele>
      </trkpt>
      <trkpt lat="46.658262" lon="9.531278">
        <time>1970-01-01T00:00:00+00:00</time>
        <ele>1659.0</ele>
      </trkpt>
      <trkpt lat="46.658314" lon="9.531231">
        <time>1970-01-01T00:00:00+00:00</time>
        <ele>1661.0</ele>
      </trkpt>
      <trkpt lat="46.658532" lon="9.531142">
        <time>1970-01-01T00:00:00+00:00</time>
        <ele>1663.0</ele>
      </trkpt>
      <trkpt lat="46.659268" lon="9.530189">
        <time>1970-01-01T00:00:00+00:00</time>
        <ele>1680.0</ele>
      </trkpt>
      <trkpt lat="46.659401" lon="9.529887">
        <time>1970-01-01T00:00:00+00:00</time>
        <ele>1682.0</ele>
      </trkpt>
      <trkpt lat="46.659507" lon="9.529701">
        <time>1970-01-01T00:00:00+00:00</time>
        <ele>1685.0</ele>
      </trkpt>
      <trkpt lat="46.659625" lon="9.529694">
        <time>1970-01-01T00:00:00+00:00</time>
        <ele>1683.0</ele>
      </trkpt>
      <trkpt lat="46.659745" lon="9.529786">
        <time>1970-01-01T00:00:00+00:00</time>
        <ele>1683.0</ele>
      </trkpt>
      <trkpt lat="46.659865" lon="9.529761">
        <time>1970-01-01T00:00:00+00:00</time>
        <ele>1686.0</ele>
      </trkpt>
      <trkpt lat="46.659917" lon="9.529642">
        <time>1970-01-01T00:00:00+00:00</time>
        <ele>1688.0</ele>
      </trkpt>
      <trkpt lat="46.659906" lon="9.529499">
        <time>1970-01-01T00:00:00+00:00</time>
        <ele>1688.0</ele>
      </trkpt>
      <trkpt lat="46.659656" lon="9.529333">
        <time>1970-01-01T00:00:00+00:00</time>
        <ele>1690.0</ele>
      </trkpt>
      <trkpt lat="46.658872" lon="9.528996">
        <time>1970-01-01T00:00:00+00:00</time>
        <ele>1714.0</ele>
      </trkpt>
      <trkpt lat="46.658614" lon="9.528972">
        <time>1970-01-01T00:00:00+00:00</time>
        <ele>1717.0</ele>
      </trkpt>
      <trkpt lat="46.658344" lon="9.529124">
        <time>1970-01-01T00:00:00+00:00</time>
        <ele>1714.0</ele>
      </trkpt>
      <trkpt lat="46.658157" lon="9.529147">
        <time>1970-01-01T00:00:00+00:00</time>
        <ele>1716.0</ele>
      </trkpt>
      <trkpt lat="46.657766" lon="9.528781">
        <time>1970-01-01T00:00:00+00:00</time>
        <ele>1725.0</ele>
      </trkpt>
      <trkpt lat="46.657415" lon="9.528774">
        <time>1970-01-01T00:00:00+00:00</time>
        <ele>1725.0</ele>
      </trkpt>
      <trkpt lat="46.657104" lon="9.528396">
        <time>1970-01-01T00:00:00+00:00</time>
        <ele>1734.0</ele>
      </trkpt>
      <trkpt lat="46.656743" lon="9.528193">
        <time>1970-01-01T00:00:00+00:00</time>
        <ele>1732.0</ele>
      </trkpt>
      <trkpt lat="46.656598" lon="9.527972">
        <time>1970-01-01T00:00:00+00:00</time>
        <ele>1735.0</ele>
      </trkpt>
      <trkpt lat="46.65648" lon="9.527879">
        <time>1970-01-01T00:00:00+00:00</time>
        <ele>1738.0</ele>
      </trkpt>
      <trkpt lat="46.656118" lon="9.527815">
        <time>1970-01-01T00:00:00+00:00</time>
        <ele>1745.0</ele>
      </trkpt>
      <trkpt lat="46.65547" lon="9.527858">
        <time>1970-01-01T00:00:00+00:00</time>
        <ele>1756.0</ele>
      </trkpt>
      <trkpt lat="46.654992" lon="9.527956">
        <time>1970-01-01T00:00:00+00:00</time>
        <ele>1763.0</ele>
      </trkpt>
      <trkpt lat="46.654822" lon="9.5281">
        <time>1970-01-01T00:00:00+00:00</time>
        <ele>1762.0</ele>
      </trkpt>
      <trkpt lat="46.6543" lon="9.528237">
        <time>1970-01-01T00:00:00+00:00</time>
        <ele>1769.0</ele>
      </trkpt>
      <trkpt lat="46.654047" lon="9.528233">
        <time>1970-01-01T00:00:00+00:00</time>
        <ele>1772.0</ele>
      </trkpt>
      <trkpt lat="46.653837" lon="9.528435">
        <time>1970-01-01T00:00:00+00:00</time>
        <ele>1768.0</ele>
      </trkpt>
      <trkpt lat="46.653726" lon="9.528404">
        <time>1970-01-01T00:00:00+00:00</time>
        <ele>1767.0</ele>
      </trkpt>
      <trkpt lat="46.653685" lon="9.528199">
        <time>1970-01-01T00:00:00+00:00</time>
        <ele>1772.0</ele>
      </trkpt>
      <trkpt lat="46.65384" lon="9.527896">
        <time>1970-01-01T00:00:00+00:00</time>
        <ele>1779.0</ele>
      </trkpt>
      <trkpt lat="46.654035" lon="9.527678">
        <time>1970-01-01T00:00:00+00:00</time>
        <ele>1785.0</ele>
      </trkpt>
      <trkpt lat="46.654183" lon="9.527559">
        <time>1970-01-01T00:00:00+00:00</time>
        <ele>1788.0</ele>
      </trkpt>
      <trkpt lat="46.654295" lon="9.527413">
        <time>1970-01-01T00:00:00+00:00</time>
        <ele>1792.0</ele>
      </trkpt>
      <trkpt lat="46.65439" lon="9.527159">
        <time>1970-01-01T00:00:00+00:00</time>
        <ele>1796.0</ele>
      </trkpt>
      <trkpt lat="46.65477" lon="9.526816">
        <time>1970-01-01T00:00:00+00:00</time>
        <ele>1796.0</ele>
      </trkpt>
      <trkpt lat="46.654949" lon="9.526475">
        <time>1970-01-01T00:00:00+00:00</time>
        <ele>1801.0</ele>
      </trkpt>
      <trkpt lat="46.655089" lon="9.526061">
        <time>1970-01-01T00:00:00+00:00</time>
        <ele>1813.0</ele>
      </trkpt>
      <trkpt lat="46.655286" lon="9.525991">
        <time>1970-01-01T00:00:00+00:00</time>
        <ele>1810.0</ele>
      </trkpt>
      <trkpt lat="46.655807" lon="9.525859">
        <time>1970-01-01T00:00:00+00:00</time>
        <ele>1817.0</ele>
      </trkpt>
      <trkpt lat="46.655951" lon="9.525987">
        <time>1970-01-01T00:00:00+00:00</time>
        <ele>1813.0</ele>
      </trkpt>
      <trkpt lat="46.656012" lon="9.525979">
        <time>1970-01-01T00:00:00+00:00</time>
        <ele>1814.0</ele>
      </trkpt>
      <trkpt lat="46.656052" lon="9.525875">
        <time>1970-01-01T00:00:00+00:00</time>
        <ele>1819.0</ele>
      </trkpt>
      <trkpt lat="46.655969" lon="9.525774">
        <time>1970-01-01T00:00:00+00:00</time>
        <ele>1821.0</ele>
      </trkpt>
      <trkpt lat="46.655418" lon="9.525521">
        <time>1970-01-01T00:00:00+00:00</time>
        <ele>1824.0</ele>
      </trkpt>
      <trkpt lat="46.655201" lon="9.525363">
        <time>1970-01-01T00:00:00+00:00</time>
        <ele>1834.0</ele>
      </trkpt>
      <trkpt lat="46.655041" lon="9.525354">
        <time>1970-01-01T00:00:00+00:00</time>
        <ele>1838.0</ele>
      </trkpt>
      <trkpt lat="46.654813" lon="9.525419">
        <time>1970-01-01T00:00:00+00:00</time>
        <ele>1841.0</ele>
      </trkpt>
      <trkpt lat="46.654629" lon="9.525537">
        <time>1970-01-01T00:00:00+00:00</time>
        <ele>1839.0</ele>
      </trkpt>
      <trkpt lat="46.654183" lon="9.525519">
        <time>1970-01-01T00:00:00+00:00</time>
        <ele>1843.0</ele>
      </trkpt>
      <trkpt lat="46.654111" lon="9.525497">
        <time>1970-01-01T00:00:00+00:00</time>
        <ele>1843.0</ele>
      </trkpt>
      <trkpt lat="46.65405" lon="9.525399">
        <time>1970-01-01T00:00:00+00:00</time>
        <ele>1844.0</ele>
      </trkpt>
      <trkpt lat="46.653969" lon="9.525035">
        <time>1970-01-01T00:00:00+00:00</time>
        <ele>1849.0</ele>
      </trkpt>
      <trkpt lat="46.65382" lon="9.524698">
        <time>1970-01-01T00:00:00+00:00</time>
        <ele>1852.0</ele>
      </trkpt>
      <trkpt lat="46.653712" lon="9.524331">
        <time>1970-01-01T00:00:00+00:00</time>
        <ele>1858.0</ele>
      </trkpt>
      <trkpt lat="46.653569" lon="9.524252">
        <time>1970-01-01T00:00:00+00:00</time>
        <ele>1862.0</ele>
      </trkpt>
      <trkpt lat="46.653482" lon="9.52426">
        <time>1970-01-01T00:00:00+00:00</time>
        <ele>1864.0</ele>
      </trkpt>
      <trkpt lat="46.65357" lon="9.52406">
        <time>1970-01-01T00:00:00+00:00</time>
        <ele>1865.0</ele>
      </trkpt>
      <trkpt lat="46.653684" lon="9.524035">
        <time>1970-01-01T00:00:00+00:00</time>
        <ele>1864.0</ele>
      </trkpt>
      <trkpt lat="46.65377" lon="9.524135">
        <time>1970-01-01T00:00:00+00:00</time>
        <ele>1862.0</ele>
      </trkpt>
      <trkpt lat="46.653939" lon="9.524389">
        <time>1970-01-01T00:00:00+00:00</time>
        <ele>1860.0</ele>
      </trkpt>
      <trkpt lat="46.654085" lon="9.524452">
        <time>1970-01-01T00:00:00+00:00</time>
        <ele>1862.0</ele>
      </trkpt>
      <trkpt lat="46.654222" lon="9.524364">
        <time>1970-01-01T00:00:00+00:00</time>
        <ele>1867.0</ele>
      </trkpt>
      <trkpt lat="46.654591" lon="9.524029">
        <time>1970-01-01T00:00:00+00:00</time>
        <ele>1874.0</ele>
      </trkpt>
      <trkpt lat="46.654461" lon="9.523982">
        <time>1970-01-01T00:00:00+00:00</time>
        <ele>1875.0</ele>
      </trkpt>
      <trkpt lat="46.654409" lon="9.523863">
        <time>1970-01-01T00:00:00+00:00</time>
        <ele>1877.0</ele>
      </trkpt>
      <trkpt lat="46.654405" lon="9.523751">
        <time>1970-01-01T00:00:00+00:00</time>
        <ele>1879.0</ele>
      </trkpt>
      <trkpt lat="46.654549" lon="9.523643">
        <time>1970-01-01T00:00:00+00:00</time>
        <ele>1881.0</ele>
      </trkpt>
      <trkpt lat="46.65457" lon="9.523538">
        <time>1970-01-01T00:00:00+00:00</time>
        <ele>1883.0</ele>
      </trkpt>
      <trkpt lat="46.654526" lon="9.523122">
        <time>1970-01-01T00:00:00+00:00</time>
        <ele>1887.0</ele>
      </trkpt>
      <trkpt lat="46.654531" lon="9.522885">
        <time>1970-01-01T00:00:00+00:00</time>
        <ele>1889.0</ele>
      </trkpt>
      <trkpt lat="46.654506" lon="9.522822">
        <time>1970-01-01T00:00:00+00:00</time>
        <ele>1889.0</ele>
      </trkpt>
      <trkpt lat="46.654391" lon="9.522685">
        <time>1970-01-01T00:00:00+00:00</time>
        <ele>1888.0</ele>
      </trkpt>
      <trkpt lat="46.654275" lon="9.52231">
        <time>1970-01-01T00:00:00+00:00</time>
        <ele>1891.0</ele>
      </trkpt>
      <trkpt lat="46.654197" lon="9.522229">
        <time>1970-01-01T00:00:00+00:00</time>
        <ele>1893.0</ele>
      </trkpt>
      <trkpt lat="46.654081" lon="9.522193">
        <time>1970-01-01T00:00:00+00:00</time>
        <ele>1893.0</ele>
      </trkpt>
      <trkpt lat="46.653939" lon="9.522104">
        <time>1970-01-01T00:00:00+00:00</time>
        <ele>1895.0</ele>
      </trkpt>
      <trkpt lat="46.653796" lon="9.521865">
        <time>1970-01-01T00:00:00+00:00</time>
        <ele>1901.0</ele>
      </trkpt>
      <trkpt lat="46.653957" lon="9.521704">
        <time>1970-01-01T00:00:00+00:00</time>
        <ele>1904.0</ele>
      </trkpt>
      <trkpt lat="46.654174" lon="9.521373">
        <time>1970-01-01T00:00:00+00:00</time>
        <ele>1910.0</ele>
      </trkpt>
      <trkpt lat="46.65428" lon="9.521319">
        <time>1970-01-01T00:00:00+00:00</time>
        <ele>1911.0</ele>
      </trkpt>
      <trkpt lat="46.654611" lon="9.52127">
        <time>1970-01-01T00:00:00+00:00</time>
        <ele>1912.0</ele>
      </trkpt>
      <trkpt lat="46.654776" lon="9.521153">
        <time>1970-01-01T00:00:00+00:00</time>
        <ele>1916.0</ele>
      </trkpt>
      <trkpt lat="46.65499" lon="9.520899">
        <time>1970-01-01T00:00:00+00:00</time>
        <ele>1921.0</ele>
      </trkpt>
      <trkpt lat="46.655107" lon="9.520822">
        <time>1970-01-01T00:00:00+00:00</time>
        <ele>1923.0</ele>
      </trkpt>
      <trkpt lat="46.655304" lon="9.520849">
        <time>1970-01-01T00:00:00+00:00</time>
        <ele>1923.0</ele>
      </trkpt>
      <trkpt lat="46.655435" lon="9.520702">
        <time>1970-01-01T00:00:00+00:00</time>
        <ele>1928.0</ele>
      </trkpt>
      <trkpt lat="46.65563" lon="9.520588">
        <time>1970-01-01T00:00:00+00:00</time>
        <ele>1931.0</ele>
      </trkpt>
      <trkpt lat="46.655898" lon="9.520504">
        <time>1970-01-01T00:00:00+00:00</time>
        <ele>1934.0</ele>
      </trkpt>
      <trkpt lat="46.656011" lon="9.52052">
        <time>1970-01-01T00:00:00+00:00</time>
        <ele>1935.0</ele>
      </trkpt>
      <trkpt lat="46.656161" lon="9.520622">
        <time>1970-01-01T00:00:00+00:00</time>
        <ele>1936.0</ele>
      </trkpt>
      <trkpt lat="46.656344" lon="9.520883">
        <time>1970-01-01T00:00:00+00:00</time>
        <ele>1937.0</ele>
      </trkpt>
      <trkpt lat="46.65645" lon="9.520949">
        <time>1970-01-01T00:00:00+00:00</time>
        <ele>1939.0</ele>
      </trkpt>
      <trkpt lat="46.656571" lon="9.520916">
        <time>1970-01-01T00:00:00+00:00</time>
        <ele>1943.0</ele>
      </trkpt>
      <trkpt lat="46.656929" lon="9.520608">
        <time>1970-01-01T00:00:00+00:00</time>
        <ele>1949.0</ele>
      </trkpt>
      <trkpt lat="46.657044" lon="9.520404">
        <time>1970-01-01T00:00:00+00:00</time>
        <ele>1951.0</ele>
      </trkpt>
      <trkpt lat="46.657212" lon="9.52021">
        <time>1970-01-01T00:00:00+00:00</time>
        <ele>1954.0</ele>
      </trkpt>
      <trkpt lat="46.657478" lon="9.520047">
        <time>1970-01-01T00:00:00+00:00</time>
        <ele>1958.0</ele>
      </trkpt>
      <trkpt lat="46.657627" lon="9.51998">
        <time>1970-01-01T00:00:00+00:00</time>
        <ele>1961.0</ele>
      </trkpt>
      <trkpt lat="46.657856" lon="9.520093">
        <time>1970-01-01T00:00:00+00:00</time>
        <ele>1963.0</ele>
      </trkpt>
      <trkpt lat="46.657925" lon="9.520087">
        <time>1970-01-01T00:00:00+00:00</time>
        <ele>1964.0</ele>
      </trkpt>
      <trkpt lat="46.65796" lon="9.52002">
        <time>1970-01-01T00:00:00+00:00</time>
        <ele>1965.0</ele>
      </trkpt>
      <trkpt lat="46.657957" lon="9.51996">
        <time>1970-01-01T00:00:00+00:00</time>
        <ele>1966.0</ele>
      </trkpt>
      <trkpt lat="46.657822" lon="9.519782">
        <time>1970-01-01T00:00:00+00:00</time>
        <ele>1967.0</ele>
      </trkpt>
      <trkpt lat="46.65771" lon="9.519461">
        <time>1970-01-01T00:00:00+00:00</time>
        <ele>1971.0</ele>
      </trkpt>
      <trkpt lat="46.657618" lon="9.519308">
        <time>1970-01-01T00:00:00+00:00</time>
        <ele>1974.0</ele>
      </trkpt>
      <trkpt lat="46.657549" lon="9.519234">
        <time>1970-01-01T00:00:00+00:00</time>
        <ele>1975.0</ele>
      </trkpt>
      <trkpt lat="46.657122" lon="9.519044">
        <time>1970-01-01T00:00:00+00:00</time>
        <ele>1977.0</ele>
      </trkpt>
      <trkpt lat="46.657028" lon="9.518906">
        <time>1970-01-01T00:00:00+00:00</time>
        <ele>1980.0</ele>
      </trkpt>
      <trkpt lat="46.656966" lon="9.518736">
        <time>1970-01-01T00:00:00+00:00</time>
        <ele>1982.0</ele>
      </trkpt>
      <trkpt lat="46.656755" lon="9.518502">
        <time>1970-01-01T00:00:00+00:00</time>
        <ele>1985.0</ele>
      </trkpt>
      <trkpt lat="46.656642" lon="9.518438">
        <time>1970-01-01T00:00:00+00:00</time>
        <ele>1987.0</ele>
      </trkpt>
      <trkpt lat="46.656452" lon="9.518392">
        <time>1970-01-01T00:00:00+00:00</time>
        <ele>1989.0</ele>
      </trkpt>
      <trkpt lat="46.656268" lon="9.518281">
        <time>1970-01-01T00:00:00+00:00</time>
        <ele>1995.0</ele>
      </trkpt>
      <trkpt lat="46.656062" lon="9.518238">
        <time>1970-01-01T00:00:00+00:00</time>
        <ele>1999.0</ele>
      </trkpt>
      <trkpt lat="46.65577" lon="9.518438">
        <time>1970-01-01T00:00:00+00:00</time>
        <ele>1995.0</ele>
      </trkpt>
      <trkpt lat="46.655681" lon="9.518415">
        <time>1970-01-01T00:00:00+00:00</time>
        <ele>1996.0</ele>
      </trkpt>
      <trkpt lat="46.655552" lon="9.518301">
        <time>1970-01-01T00:00:00+00:00</time>
        <ele>1999.0</ele>
      </trkpt>
      <trkpt lat="46.65538" lon="9.517917">
        <time>1970-01-01T00:00:00+00:00</time>
        <ele>2008.0</ele>
      </trkpt>
      <trkpt lat="46.655157" lon="9.517656">
        <time>1970-01-01T00:00:00+00:00</time>
        <ele>2011.0</ele>
      </trkpt>
      <trkpt lat="46.6551" lon="9.517542">
        <time>1970-01-01T00:00:00+00:00</time>
        <ele>2013.0</ele>
      </trkpt>
      <trkpt lat="46.655043" lon="9.517258">
        <time>1970-01-01T00:00:00+00:00</time>
        <ele>2018.0</ele>
      </trkpt>
      <trkpt lat="46.654956" lon="9.517148">
        <time>1970-01-01T00:00:00+00:00</time>
        <ele>2018.0</ele>
      </trkpt>
      <trkpt lat="46.654738" lon="9.517017">
        <time>1970-01-01T00:00:00+00:00</time>
        <ele>2018.0</ele>
      </trkpt>
      <trkpt lat="46.654575" lon="9.51673">
        <time>1970-01-01T00:00:00+00:00</time>
        <ele>2023.0</ele>
      </trkpt>
      <trkpt lat="46.65437" lon="9.516569">
        <time>1970-01-01T00:00:00+00:00</time>
        <ele>2027.0</ele>
      </trkpt>
      <trkpt lat="46.654067" lon="9.516175">
        <time>1970-01-01T00:00:00+00:00</time>
        <ele>2035.0</ele>
      </trkpt>
      <trkpt lat="46.654001" lon="9.516158">
        <time>1970-01-01T00:00:00+00:00</time>
        <ele>2036.0</ele>
      </trkpt>
      <trkpt lat="46.653815" lon="9.516215">
        <time>1970-01-01T00:00:00+00:00</time>
        <ele>2036.0</ele>
      </trkpt>
      <trkpt lat="46.653544" lon="9.516188">
        <time>1970-01-01T00:00:00+00:00</time>
        <ele>2036.0</ele>
      </trkpt>
      <trkpt lat="46.652975" lon="9.515429">
        <time>1970-01-01T00:00:00+00:00</time>
        <ele>2051.0</ele>
      </trkpt>
      <trkpt lat="46.652431" lon="9.515061">
        <time>1970-01-01T00:00:00+00:00</time>
        <ele>2059.0</ele>
      </trkpt>
      <trkpt lat="46.651981" lon="9.514874">
        <time>1970-01-01T00:00:00+00:00</time>
        <ele>2063.0</ele>
      </trkpt>
      <trkpt lat="46.6518" lon="9.514694">
        <time>1970-01-01T00:00:00+00:00</time>
        <ele>2069.0</ele>
      </trkpt>
      <trkpt lat="46.651329" lon="9.514332">
        <time>1970-01-01T00:00:00+00:00</time>
        <ele>2074.0</ele>
      </trkpt>
      <trkpt lat="46.651173" lon="9.514309">
        <time>1970-01-01T00:00:00+00:00</time>
        <ele>2072.0</ele>
      </trkpt>
      <trkpt lat="46.650576" lon="9.513851">
        <time>1970-01-01T00:00:00+00:00</time>
        <ele>2075.0</ele>
      </trkpt>
      <trkpt lat="46.650319" lon="9.513533">
        <time>1970-01-01T00:00:00+00:00</time>
        <ele>2081.0</ele>
      </trkpt>
      <trkpt lat="46.649624" lon="9.512975">
        <time>1970-01-01T00:00:00+00:00</time>
        <ele>2089.0</ele>
      </trkpt>
      <trkpt lat="46.649493" lon="9.512634">
        <time>1970-01-01T00:00:00+00:00</time>
        <ele>2099.0</ele>
      </trkpt>
      <trkpt lat="46.649105" lon="9.512186">
        <time>1970-01-01T00:00:00+00:00</time>
        <ele>2102.0</ele>
      </trkpt>
      <trkpt lat="46.648977" lon="9.511985">
        <time>1970-01-01T00:00:00+00:00</time>
        <ele>2105.0</ele>
      </trkpt>
      <trkpt lat="46.648504" lon="9.511831">
        <time>1970-01-01T00:00:00+00:00</time>
        <ele>2107.0</ele>
      </trkpt>
      <trkpt lat="46.648263" lon="9.511694">
        <time>1970-01-01T00:00:00+00:00</time>
        <ele>2109.0</ele>
      </trkpt>
      <trkpt lat="46.648142" lon="9.511527">
        <time>1970-01-01T00:00:00+00:00</time>
        <ele>2114.0</ele>
      </trkpt>
      <trkpt lat="46.647553" lon="9.510984">
        <time>1970-01-01T00:00:00+00:00</time>
        <ele>2129.0</ele>
      </trkpt>
      <trkpt lat="46.647477" lon="9.510938">
        <time>1970-01-01T00:00:00+00:00</time>
        <ele>2129.0</ele>
      </trkpt>
      <trkpt lat="46.647334" lon="9.510892">
        <time>1970-01-01T00:00:00+00:00</time>
        <ele>2128.0</ele>
      </trkpt>
      <trkpt lat="46.647297" lon="9.510807">
        <time>1970-01-01T00:00:00+00:00</time>
        <ele>2129.0</ele>
      </trkpt>
      <trkpt lat="46.647313" lon="9.510747">
        <time>1970-01-01T00:00:00+00:00</time>
        <ele>2131.0</ele>
      </trkpt>
      <trkpt lat="46.647514" lon="9.510571">
        <time>1970-01-01T00:00:00+00:00</time>
        <ele>2137.0</ele>
      </trkpt>
      <trkpt lat="46.647598" lon="9.510473">
        <time>1970-01-01T00:00:00+00:00</time>
        <ele>2140.0</ele>
      </trkpt>
      <trkpt lat="46.647775" lon="9.510377">
        <time>1970-01-01T00:00:00+00:00</time>
        <ele>2144.0</ele>
      </trkpt>
      <trkpt lat="46.647959" lon="9.51039">
        <time>1970-01-01T00:00:00+00:00</time>
        <ele>2144.0</ele>
      </trkpt>
      <trkpt lat="46.648451" lon="9.510844">
        <time>1970-01-01T00:00:00+00:00</time>
        <ele>2136.0</ele>
      </trkpt>
      <trkpt lat="46.648617" lon="9.510908">
        <time>1970-01-01T00:00:00+00:00</time>
        <ele>2136.0</ele>
      </trkpt>
      <trkpt lat="46.648752" lon="9.510989">
        <time>1970-01-01T00:00:00+00:00</time>
        <ele>2136.0</ele>
      </trkpt>
      <trkpt lat="46.648752" lon="9.510989">
        <time>1970-01-01T00:00:00+00:00</time>
        <ele>2136.0</ele>
      </trkpt>
      <trkpt lat="46.648617" lon="9.510908">
        <time>1970-01-01T00:00:00+00:00</time>
        <ele>2136.0</ele>
      </trkpt>
      <trkpt lat="46.648451" lon="9.510844">
        <time>1970-01-01T00:00:00+00:00</time>
        <ele>2136.0</ele>
      </trkpt>
      <trkpt lat="46.647959" lon="9.51039">
        <time>1970-01-01T00:00:00+00:00</time>
        <ele>2144.0</ele>
      </trkpt>
      <trkpt lat="46.647775" lon="9.510377">
        <time>1970-01-01T00:00:00+00:00</time>
        <ele>2144.0</ele>
      </trkpt>
      <trkpt lat="46.647598" lon="9.510473">
        <time>1970-01-01T00:00:00+00:00</time>
        <ele>2140.0</ele>
      </trkpt>
      <trkpt lat="46.647514" lon="9.510571">
        <time>1970-01-01T00:00:00+00:00</time>
        <ele>2137.0</ele>
      </trkpt>
      <trkpt lat="46.647313" lon="9.510747">
        <time>1970-01-01T00:00:00+00:00</time>
        <ele>2131.0</ele>
      </trkpt>
      <trkpt lat="46.647297" lon="9.510807">
        <time>1970-01-01T00:00:00+00:00</time>
        <ele>2129.0</ele>
      </trkpt>
      <trkpt lat="46.647334" lon="9.510892">
        <time>1970-01-01T00:00:00+00:00</time>
        <ele>2128.0</ele>
      </trkpt>
      <trkpt lat="46.647477" lon="9.510938">
        <time>1970-01-01T00:00:00+00:00</time>
        <ele>2129.0</ele>
      </trkpt>
      <trkpt lat="46.647553" lon="9.510984">
        <time>1970-01-01T00:00:00+00:00</time>
        <ele>2129.0</ele>
      </trkpt>
      <trkpt lat="46.648142" lon="9.511527">
        <time>1970-01-01T00:00:00+00:00</time>
        <ele>2114.0</ele>
      </trkpt>
      <trkpt lat="46.648263" lon="9.511694">
        <time>1970-01-01T00:00:00+00:00</time>
        <ele>2109.0</ele>
      </trkpt>
      <trkpt lat="46.648504" lon="9.511831">
        <time>1970-01-01T00:00:00+00:00</time>
        <ele>2107.0</ele>
      </trkpt>
      <trkpt lat="46.648977" lon="9.511985">
        <time>1970-01-01T00:00:00+00:00</time>
        <ele>2105.0</ele>
      </trkpt>
      <trkpt lat="46.649105" lon="9.512186">
        <time>1970-01-01T00:00:00+00:00</time>
        <ele>2102.0</ele>
      </trkpt>
      <trkpt lat="46.649493" lon="9.512634">
        <time>1970-01-01T00:00:00+00:00</time>
        <ele>2099.0</ele>
      </trkpt>
      <trkpt lat="46.649624" lon="9.512975">
        <time>1970-01-01T00:00:00+00:00</time>
        <ele>2089.0</ele>
      </trkpt>
      <trkpt lat="46.650319" lon="9.513533">
        <time>1970-01-01T00:00:00+00:00</time>
        <ele>2081.0</ele>
      </trkpt>
      <trkpt lat="46.650576" lon="9.513851">
        <time>1970-01-01T00:00:00+00:00</time>
        <ele>2075.0</ele>
      </trkpt>
      <trkpt lat="46.651173" lon="9.514309">
        <time>1970-01-01T00:00:00+00:00</time>
        <ele>2072.0</ele>
      </trkpt>
      <trkpt lat="46.651329" lon="9.514332">
        <time>1970-01-01T00:00:00+00:00</time>
        <ele>2074.0</ele>
      </trkpt>
      <trkpt lat="46.6518" lon="9.514694">
        <time>1970-01-01T00:00:00+00:00</time>
        <ele>2069.0</ele>
      </trkpt>
      <trkpt lat="46.651981" lon="9.514874">
        <time>1970-01-01T00:00:00+00:00</time>
        <ele>2063.0</ele>
      </trkpt>
      <trkpt lat="46.652431" lon="9.515061">
        <time>1970-01-01T00:00:00+00:00</time>
        <ele>2059.0</ele>
      </trkpt>
      <trkpt lat="46.652975" lon="9.515429">
        <time>1970-01-01T00:00:00+00:00</time>
        <ele>2051.0</ele>
      </trkpt>
      <trkpt lat="46.653544" lon="9.516188">
        <time>1970-01-01T00:00:00+00:00</time>
        <ele>2036.0</ele>
      </trkpt>
      <trkpt lat="46.653815" lon="9.516215">
        <time>1970-01-01T00:00:00+00:00</time>
        <ele>2036.0</ele>
      </trkpt>
      <trkpt lat="46.654001" lon="9.516158">
        <time>1970-01-01T00:00:00+00:00</time>
        <ele>2036.0</ele>
      </trkpt>
      <trkpt lat="46.654067" lon="9.516175">
        <time>1970-01-01T00:00:00+00:00</time>
        <ele>2035.0</ele>
      </trkpt>
      <trkpt lat="46.65437" lon="9.516569">
        <time>1970-01-01T00:00:00+00:00</time>
        <ele>2027.0</ele>
      </trkpt>
      <trkpt lat="46.654575" lon="9.51673">
        <time>1970-01-01T00:00:00+00:00</time>
        <ele>2023.0</ele>
      </trkpt>
      <trkpt lat="46.654738" lon="9.517017">
        <time>1970-01-01T00:00:00+00:00</time>
        <ele>2018.0</ele>
      </trkpt>
      <trkpt lat="46.654956" lon="9.517148">
        <time>1970-01-01T00:00:00+00:00</time>
        <ele>2018.0</ele>
      </trkpt>
      <trkpt lat="46.655043" lon="9.517258">
        <time>1970-01-01T00:00:00+00:00</time>
        <ele>2018.0</ele>
      </trkpt>
      <trkpt lat="46.6551" lon="9.517542">
        <time>1970-01-01T00:00:00+00:00</time>
        <ele>2013.0</ele>
      </trkpt>
      <trkpt lat="46.655157" lon="9.517656">
        <time>1970-01-01T00:00:00+00:00</time>
        <ele>2011.0</ele>
      </trkpt>
      <trkpt lat="46.65538" lon="9.517917">
        <time>1970-01-01T00:00:00+00:00</time>
        <ele>2008.0</ele>
      </trkpt>
      <trkpt lat="46.655552" lon="9.518301">
        <time>1970-01-01T00:00:00+00:00</time>
        <ele>1999.0</ele>
      </trkpt>
      <trkpt lat="46.655681" lon="9.518415">
        <time>1970-01-01T00:00:00+00:00</time>
        <ele>1996.0</ele>
      </trkpt>
      <trkpt lat="46.65577" lon="9.518438">
        <time>1970-01-01T00:00:00+00:00</time>
        <ele>1995.0</ele>
      </trkpt>
      <trkpt lat="46.656062" lon="9.518238">
        <time>1970-01-01T00:00:00+00:00</time>
        <ele>1999.0</ele>
      </trkpt>
      <trkpt lat="46.656268" lon="9.518281">
        <time>1970-01-01T00:00:00+00:00</time>
        <ele>1995.0</ele>
      </trkpt>
      <trkpt lat="46.656452" lon="9.518392">
        <time>1970-01-01T00:00:00+00:00</time>
        <ele>1989.0</ele>
      </trkpt>
      <trkpt lat="46.656642" lon="9.518438">
        <time>1970-01-01T00:00:00+00:00</time>
        <ele>1987.0</ele>
      </trkpt>
      <trkpt lat="46.656755" lon="9.518502">
        <time>1970-01-01T00:00:00+00:00</time>
        <ele>1985.0</ele>
      </trkpt>
      <trkpt lat="46.656966" lon="9.518736">
        <time>1970-01-01T00:00:00+00:00</time>
        <ele>1982.0</ele>
      </trkpt>
      <trkpt lat="46.657028" lon="9.518906">
        <time>1970-01-01T00:00:00+00:00</time>
        <ele>1980.0</ele>
      </trkpt>
      <trkpt lat="46.657122" lon="9.519044">
        <time>1970-01-01T00:00:00+00:00</time>
        <ele>1977.0</ele>
      </trkpt>
      <trkpt lat="46.657549" lon="9.519234">
        <time>1970-01-01T00:00:00+00:00</time>
        <ele>1975.0</ele>
      </trkpt>
      <trkpt lat="46.657618" lon="9.519308">
        <time>1970-01-01T00:00:00+00:00</time>
        <ele>1974.0</ele>
      </trkpt>
      <trkpt lat="46.65771" lon="9.519461">
        <time>1970-01-01T00:00:00+00:00</time>
        <ele>1971.0</ele>
      </trkpt>
      <trkpt lat="46.657822" lon="9.519782">
        <time>1970-01-01T00:00:00+00:00</time>
        <ele>1967.0</ele>
      </trkpt>
      <trkpt lat="46.657957" lon="9.51996">
        <time>1970-01-01T00:00:00+00:00</time>
        <ele>1966.0</ele>
      </trkpt>
      <trkpt lat="46.65796" lon="9.52002">
        <time>1970-01-01T00:00:00+00:00</time>
        <ele>1965.0</ele>
      </trkpt>
      <trkpt lat="46.657925" lon="9.520087">
        <time>1970-01-01T00:00:00+00:00</time>
        <ele>1964.0</ele>
      </trkpt>
      <trkpt lat="46.657856" lon="9.520093">
        <time>1970-01-01T00:00:00+00:00</time>
        <ele>1963.0</ele>
      </trkpt>
      <trkpt lat="46.657627" lon="9.51998">
        <time>1970-01-01T00:00:00+00:00</time>
        <ele>1961.0</ele>
      </trkpt>
      <trkpt lat="46.657478" lon="9.520047">
        <time>1970-01-01T00:00:00+00:00</time>
        <ele>1958.0</ele>
      </trkpt>
      <trkpt lat="46.657212" lon="9.52021">
        <time>1970-01-01T00:00:00+00:00</time>
        <ele>1954.0</ele>
      </trkpt>
      <trkpt lat="46.657044" lon="9.520404">
        <time>1970-01-01T00:00:00+00:00</time>
        <ele>1951.0</ele>
      </trkpt>
      <trkpt lat="46.656929" lon="9.520608">
        <time>1970-01-01T00:00:00+00:00</time>
        <ele>1949.0</ele>
      </trkpt>
      <trkpt lat="46.656571" lon="9.520916">
        <time>1970-01-01T00:00:00+00:00</time>
        <ele>1943.0</ele>
      </trkpt>
      <trkpt lat="46.65645" lon="9.520949">
        <time>1970-01-01T00:00:00+00:00</time>
        <ele>1939.0</ele>
      </trkpt>
      <trkpt lat="46.656344" lon="9.520883">
        <time>1970-01-01T00:00:00+00:00</time>
        <ele>1937.0</ele>
      </trkpt>
      <trkpt lat="46.656161" lon="9.520622">
        <time>1970-01-01T00:00:00+00:00</time>
        <ele>1936.0</ele>
      </trkpt>
      <trkpt lat="46.656011" lon="9.52052">
        <time>1970-01-01T00:00:00+00:00</time>
        <ele>1935.0</ele>
      </trkpt>
      <trkpt lat="46.655898" lon="9.520504">
        <time>1970-01-01T00:00:00+00:00</time>
        <ele>1934.0</ele>
      </trkpt>
      <trkpt lat="46.65563" lon="9.520588">
        <time>1970-01-01T00:00:00+00:00</time>
        <ele>1931.0</ele>
      </trkpt>
      <trkpt lat="46.655435" lon="9.520702">
        <time>1970-01-01T00:00:00+00:00</time>
        <ele>1928.0</ele>
      </trkpt>
      <trkpt lat="46.655304" lon="9.520849">
        <time>1970-01-01T00:00:00+00:00</time>
        <ele>1923.0</ele>
      </trkpt>
      <trkpt lat="46.655107" lon="9.520822">
        <time>1970-01-01T00:00:00+00:00</time>
        <ele>1923.0</ele>
      </trkpt>
      <trkpt lat="46.65499" lon="9.520899">
        <time>1970-01-01T00:00:00+00:00</time>
        <ele>1921.0</ele>
      </trkpt>
      <trkpt lat="46.654776" lon="9.521153">
        <time>1970-01-01T00:00:00+00:00</time>
        <ele>1916.0</ele>
      </trkpt>
      <trkpt lat="46.654611" lon="9.52127">
        <time>1970-01-01T00:00:00+00:00</time>
        <ele>1912.0</ele>
      </trkpt>
      <trkpt lat="46.65428" lon="9.521319">
        <time>1970-01-01T00:00:00+00:00</time>
        <ele>1911.0</ele>
      </trkpt>
      <trkpt lat="46.654174" lon="9.521373">
        <time>1970-01-01T00:00:00+00:00</time>
        <ele>1910.0</ele>
      </trkpt>
      <trkpt lat="46.653957" lon="9.521704">
        <time>1970-01-01T00:00:00+00:00</time>
        <ele>1904.0</ele>
      </trkpt>
      <trkpt lat="46.653796" lon="9.521865">
        <time>1970-01-01T00:00:00+00:00</time>
        <ele>1901.0</ele>
      </trkpt>
      <trkpt lat="46.653939" lon="9.522104">
        <time>1970-01-01T00:00:00+00:00</time>
        <ele>1895.0</ele>
      </trkpt>
      <trkpt lat="46.654081" lon="9.522193">
        <time>1970-01-01T00:00:00+00:00</time>
        <ele>1893.0</ele>
      </trkpt>
      <trkpt lat="46.654197" lon="9.522229">
        <time>1970-01-01T00:00:00+00:00</time>
        <ele>1893.0</ele>
      </trkpt>
      <trkpt lat="46.654275" lon="9.52231">
        <time>1970-01-01T00:00:00+00:00</time>
        <ele>1891.0</ele>
      </trkpt>
      <trkpt lat="46.654391" lon="9.522685">
        <time>1970-01-01T00:00:00+00:00</time>
        <ele>1888.0</ele>
      </trkpt>
      <trkpt lat="46.654506" lon="9.522822">
        <time>1970-01-01T00:00:00+00:00</time>
        <ele>1889.0</ele>
      </trkpt>
      <trkpt lat="46.654531" lon="9.522885">
        <time>1970-01-01T00:00:00+00:00</time>
        <ele>1889.0</ele>
      </trkpt>
      <trkpt lat="46.654526" lon="9.523122">
        <time>1970-01-01T00:00:00+00:00</time>
        <ele>1887.0</ele>
      </trkpt>
      <trkpt lat="46.65457" lon="9.523538">
        <time>1970-01-01T00:00:00+00:00</time>
        <ele>1883.0</ele>
      </trkpt>
      <trkpt lat="46.654549" lon="9.523643">
        <time>1970-01-01T00:00:00+00:00</time>
        <ele>1881.0</ele>
      </trkpt>
      <trkpt lat="46.654405" lon="9.523751">
        <time>1970-01-01T00:00:00+00:00</time>
        <ele>1879.0</ele>
      </trkpt>
      <trkpt lat="46.654409" lon="9.523863">
        <time>1970-01-01T00:00:00+00:00</time>
        <ele>1877.0</ele>
      </trkpt>
      <trkpt lat="46.654461" lon="9.523982">
        <time>1970-01-01T00:00:00+00:00</time>
        <ele>1875.0</ele>
      </trkpt>
      <trkpt lat="46.654591" lon="9.524029">
        <time>1970-01-01T00:00:00+00:00</time>
        <ele>1874.0</ele>
      </trkpt>
      <trkpt lat="46.654222" lon="9.524364">
        <time>1970-01-01T00:00:00+00:00</time>
        <ele>1867.0</ele>
      </trkpt>
      <trkpt lat="46.654085" lon="9.524452">
        <time>1970-01-01T00:00:00+00:00</time>
        <ele>1862.0</ele>
      </trkpt>
      <trkpt lat="46.653939" lon="9.524389">
        <time>1970-01-01T00:00:00+00:00</time>
        <ele>1860.0</ele>
      </trkpt>
      <trkpt lat="46.65377" lon="9.524135">
        <time>1970-01-01T00:00:00+00:00</time>
        <ele>1862.0</ele>
      </trkpt>
      <trkpt lat="46.653684" lon="9.524035">
        <time>1970-01-01T00:00:00+00:00</time>
        <ele>1864.0</ele>
      </trkpt>
      <trkpt lat="46.65357" lon="9.52406">
        <time>1970-01-01T00:00:00+00:00</time>
        <ele>1865.0</ele>
      </trkpt>
      <trkpt lat="46.653482" lon="9.52426">
        <time>1970-01-01T00:00:00+00:00</time>
        <ele>1864.0</ele>
      </trkpt>
      <trkpt lat="46.653569" lon="9.524252">
        <time>1970-01-01T00:00:00+00:00</time>
        <ele>1862.0</ele>
      </trkpt>
      <trkpt lat="46.653712" lon="9.524331">
        <time>1970-01-01T00:00:00+00:00</time>
        <ele>1858.0</ele>
      </trkpt>
      <trkpt lat="46.65382" lon="9.524698">
        <time>1970-01-01T00:00:00+00:00</time>
        <ele>1852.0</ele>
      </trkpt>
      <trkpt lat="46.653969" lon="9.525035">
        <time>1970-01-01T00:00:00+00:00</time>
        <ele>1849.0</ele>
      </trkpt>
      <trkpt lat="46.65405" lon="9.525399">
        <time>1970-01-01T00:00:00+00:00</time>
        <ele>1844.0</ele>
      </trkpt>
      <trkpt lat="46.654111" lon="9.525497">
        <time>1970-01-01T00:00:00+00:00</time>
        <ele>1843.0</ele>
      </trkpt>
      <trkpt lat="46.654183" lon="9.525519">
        <time>1970-01-01T00:00:00+00:00</time>
        <ele>1843.0</ele>
      </trkpt>
      <trkpt lat="46.654629" lon="9.525537">
        <time>1970-01-01T00:00:00+00:00</time>
        <ele>1839.0</ele>
      </trkpt>
      <trkpt lat="46.654813" lon="9.525419">
        <time>1970-01-01T00:00:00+00:00</time>
        <ele>1841.0</ele>
      </trkpt>
      <trkpt lat="46.655041" lon="9.525354">
        <time>1970-01-01T00:00:00+00:00</time>
        <ele>1838.0</ele>
      </trkpt>
      <trkpt lat="46.655201" lon="9.525363">
        <time>1970-01-01T00:00:00+00:00</time>
        <ele>1834.0</ele>
      </trkpt>
      <trkpt lat="46.655418" lon="9.525521">
        <time>1970-01-01T00:00:00+00:00</time>
        <ele>1824.0</ele>
      </trkpt>
      <trkpt lat="46.655969" lon="9.525774">
        <time>1970-01-01T00:00:00+00:00</time>
        <ele>1821.0</ele>
      </trkpt>
      <trkpt lat="46.656052" lon="9.525875">
        <time>1970-01-01T00:00:00+00:00</time>
        <ele>1819.0</ele>
      </trkpt>
      <trkpt lat="46.656012" lon="9.525979">
        <time>1970-01-01T00:00:00+00:00</time>
        <ele>1814.0</ele>
      </trkpt>
      <trkpt lat="46.655951" lon="9.525987">
        <time>1970-01-01T00:00:00+00:00</time>
        <ele>1813.0</ele>
      </trkpt>
      <trkpt lat="46.655807" lon="9.525859">
        <time>1970-01-01T00:00:00+00:00</time>
        <ele>1817.0</ele>
      </trkpt>
      <trkpt lat="46.655286" lon="9.525991">
        <time>1970-01-01T00:00:00+00:00</time>
        <ele>1810.0</ele>
      </trkpt>
      <trkpt lat="46.655089" lon="9.526061">
        <time>1970-01-01T00:00:00+00:00</time>
        <ele>1813.0</ele>
      </trkpt>
      <trkpt lat="46.654949" lon="9.526475">
        <time>1970-01-01T00:00:00+00:00</time>
        <ele>1801.0</ele>
      </trkpt>
      <trkpt lat="46.65477" lon="9.526816">
        <time>1970-01-01T00:00:00+00:00</time>
        <ele>1796.0</ele>
      </trkpt>
      <trkpt lat="46.65439" lon="9.527159">
        <time>1970-01-01T00:00:00+00:00</time>
        <ele>1796.0</ele>
      </trkpt>
      <trkpt lat="46.654295" lon="9.527413">
        <time>1970-01-01T00:00:00+00:00</time>
        <ele>1792.0</ele>
      </trkpt>
      <trkpt lat="46.654183" lon="9.527559">
        <time>1970-01-01T00:00:00+00:00</time>
        <ele>1788.0</ele>
      </trkpt>
      <trkpt lat="46.654035" lon="9.527678">
        <time>1970-01-01T00:00:00+00:00</time>
        <ele>1785.0</ele>
      </trkpt>
      <trkpt lat="46.65384" lon="9.527896">
        <time>1970-01-01T00:00:00+00:00</time>
        <ele>1779.0</ele>
      </trkpt>
      <trkpt lat="46.653685" lon="9.528199">
        <time>1970-01-01T00:00:00+00:00</time>
        <ele>1772.0</ele>
      </trkpt>
      <trkpt lat="46.653726" lon="9.528404">
        <time>1970-01-01T00:00:00+00:00</time>
        <ele>1767.0</ele>
      </trkpt>
      <trkpt lat="46.653837" lon="9.528435">
        <time>1970-01-01T00:00:00+00:00</time>
        <ele>1768.0</ele>
      </trkpt>
      <trkpt lat="46.654047" lon="9.528233">
        <time>1970-01-01T00:00:00+00:00</time>
        <ele>1772.0</ele>
      </trkpt>
      <trkpt lat="46.6543" lon="9.528237">
        <time>1970-01-01T00:00:00+00:00</time>
        <ele>1769.0</ele>
      </trkpt>
      <trkpt lat="46.654822" lon="9.5281">
        <time>1970-01-01T00:00:00+00:00</time>
        <ele>1762.0</ele>
      </trkpt>
      <trkpt lat="46.654992" lon="9.527956">
        <time>1970-01-01T00:00:00+00:00</time>
        <ele>1763.0</ele>
      </trkpt>
      <trkpt lat="46.65547" lon="9.527858">
        <time>1970-01-01T00:00:00+00:00</time>
        <ele>1756.0</ele>
      </trkpt>
      <trkpt lat="46.656118" lon="9.527815">
        <time>1970-01-01T00:00:00+00:00</time>
        <ele>1745.0</ele>
      </trkpt>
      <trkpt lat="46.65648" lon="9.527879">
        <time>1970-01-01T00:00:00+00:00</time>
        <ele>1738.0</ele>
      </trkpt>
      <trkpt lat="46.656598" lon="9.527972">
        <time>1970-01-01T00:00:00+00:00</time>
        <ele>1735.0</ele>
      </trkpt>
      <trkpt lat="46.656743" lon="9.528193">
        <time>1970-01-01T00:00:00+00:00</time>
        <ele>1732.0</ele>
      </trkpt>
      <trkpt lat="46.657104" lon="9.528396">
        <time>1970-01-01T00:00:00+00:00</time>
        <ele>1734.0</ele>
      </trkpt>
      <trkpt lat="46.657415" lon="9.528774">
        <time>1970-01-01T00:00:00+00:00</time>
        <ele>1725.0</ele>
      </trkpt>
      <trkpt lat="46.657766" lon="9.528781">
        <time>1970-01-01T00:00:00+00:00</time>
        <ele>1725.0</ele>
      </trkpt>
      <trkpt lat="46.658157" lon="9.529147">
        <time>1970-01-01T00:00:00+00:00</time>
        <ele>1716.0</ele>
      </trkpt>
      <trkpt lat="46.658344" lon="9.529124">
        <time>1970-01-01T00:00:00+00:00</time>
        <ele>1714.0</ele>
      </trkpt>
      <trkpt lat="46.658614" lon="9.528972">
        <time>1970-01-01T00:00:00+00:00</time>
        <ele>1717.0</ele>
      </trkpt>
      <trkpt lat="46.658872" lon="9.528996">
        <time>1970-01-01T00:00:00+00:00</time>
        <ele>1714.0</ele>
      </trkpt>
      <trkpt lat="46.659656" lon="9.529333">
        <time>1970-01-01T00:00:00+00:00</time>
        <ele>1690.0</ele>
      </trkpt>
      <trkpt lat="46.659906" lon="9.529499">
        <time>1970-01-01T00:00:00+00:00</time>
        <ele>1688.0</ele>
      </trkpt>
      <trkpt lat="46.659917" lon="9.529642">
        <time>1970-01-01T00:00:00+00:00</time>
        <ele>1688.0</ele>
      </trkpt>
      <trkpt lat="46.659865" lon="9.529761">
        <time>1970-01-01T00:00:00+00:00</time>
        <ele>1686.0</ele>
      </trkpt>
      <trkpt lat="46.659745" lon="9.529786">
        <time>1970-01-01T00:00:00+00:00</time>
        <ele>1683.0</ele>
      </trkpt>
      <trkpt lat="46.659625" lon="9.529694">
        <time>1970-01-01T00:00:00+00:00</time>
        <ele>1683.0</ele>
      </trkpt>
      <trkpt lat="46.659507" lon="9.529701">
        <time>1970-01-01T00:00:00+00:00</time>
        <ele>1685.0</ele>
      </trkpt>
      <trkpt lat="46.659401" lon="9.529887">
        <time>1970-01-01T00:00:00+00:00</time>
        <ele>1682.0</ele>
      </trkpt>
      <trkpt lat="46.659268" lon="9.530189">
        <time>1970-01-01T00:00:00+00:00</time>
        <ele>1680.0</ele>
      </trkpt>
      <trkpt lat="46.658532" lon="9.531142">
        <time>1970-01-01T00:00:00+00:00</time>
        <ele>1663.0</ele>
      </trkpt>
      <trkpt lat="46.658314" lon="9.531231">
        <time>1970-01-01T00:00:00+00:00</time>
        <ele>1661.0</ele>
      </trkpt>
      <trkpt lat="46.658262" lon="9.531278">
        <time>1970-01-01T00:00:00+00:00</time>
        <ele>1659.0</ele>
      </trkpt>
      <trkpt lat="46.658323" lon="9.531399">
        <time>1970-01-01T00:00:00+00:00</time>
        <ele>1655.0</ele>
      </trkpt>
      <trkpt lat="46.65842" lon="9.531487">
        <time>1970-01-01T00:00:00+00:00</time>
        <ele>1651.0</ele>
      </trkpt>
      <trkpt lat="46.658643" lon="9.531525">
        <time>1970-01-01T00:00:00+00:00</time>
        <ele>1648.0</ele>
      </trkpt>
      <trkpt lat="46.658919" lon="9.531332">
        <time>1970-01-01T00:00:00+00:00</time>
        <ele>1650.0</ele>
      </trkpt>
      <trkpt lat="46.659016" lon="9.531343">
        <time>1970-01-01T00:00:00+00:00</time>
        <ele>1649.0</ele>
      </trkpt>
      <trkpt lat="46.659213" lon="9.531466">
        <time>1970-01-01T00:00:00+00:00</time>
        <ele>1643.0</ele>
      </trkpt>
      <trkpt lat="46.659552" lon="9.531572">
        <time>1970-01-01T00:00:00+00:00</time>
        <ele>1641.0</ele>
      </trkpt>
      <trkpt lat="46.659795" lon="9.531601">
        <time>1970-01-01T00:00:00+00:00</time>
        <ele>1643.0</ele>
      </trkpt>
      <trkpt lat="46.65997" lon="9.531564">
        <time>1970-01-01T00:00:00+00:00</time>
        <ele>1644.0</ele>
      </trkpt>
      <trkpt lat="46.660137" lon="9.531605">
        <time>1970-01-01T00:00:00+00:00</time>
        <ele>1642.0</ele>
      </trkpt>
      <trkpt lat="46.660076" lon="9.531711">
        <time>1970-01-01T00:00:00+00:00</time>
        <ele>1640.0</ele>
      </trkpt>
      <trkpt lat="46.659793" lon="9.53191">
        <time>1970-01-01T00:00:00+00:00</time>
        <ele>1638.0</ele>
      </trkpt>
      <trkpt lat="46.659634" lon="9.532199">
        <time>1970-01-01T00:00:00+00:00</time>
        <ele>1632.0</ele>
      </trkpt>
      <trkpt lat="46.659541" lon="9.532304">
        <time>1970-01-01T00:00:00+00:00</time>
        <ele>1628.0</ele>
      </trkpt>
      <trkpt lat="46.659295" lon="9.532414">
        <time>1970-01-01T00:00:00+00:00</time>
        <ele>1622.0</ele>
      </trkpt>
      <trkpt lat="46.659023" lon="9.532481">
        <time>1970-01-01T00:00:00+00:00</time>
        <ele>1619.0</ele>
      </trkpt>
      <trkpt lat="46.658583" lon="9.532549">
        <time>1970-01-01T00:00:00+00:00</time>
        <ele>1618.0</ele>
      </trkpt>
      <trkpt lat="46.658731" lon="9.532594">
        <time>1970-01-01T00:00:00+00:00</time>
        <ele>1616.0</ele>
      </trkpt>
      <trkpt lat="46.658974" lon="9.532792">
        <time>1970-01-01T00:00:00+00:00</time>
        <ele>1613.0</ele>
      </trkpt>
      <trkpt lat="46.65907" lon="9.533031">
        <time>1970-01-01T00:00:00+00:00</time>
        <ele>1609.0</ele>
      </trkpt>
      <trkpt lat="46.659667" lon="9.533413">
        <time>1970-01-01T00:00:00+00:00</time>
        <ele>1596.0</ele>
      </trkpt>
      <trkpt lat="46.659966" lon="9.533568">
        <time>1970-01-01T00:00:00+00:00</time>
        <ele>1585.0</ele>
      </trkpt>
      <trkpt lat="46.660217" lon="9.533652">
        <time>1970-01-01T00:00:00+00:00</time>
        <ele>1579.0</ele>
      </trkpt>
      <trkpt lat="46.661181" lon="9.533822">
        <time>1970-01-01T00:00:00+00:00</time>
        <ele>1548.0</ele>
      </trkpt>
      <trkpt lat="46.661444" lon="9.533914">
        <time>1970-01-01T00:00:00+00:00</time>
        <ele>1537.0</ele>
      </trkpt>
      <trkpt lat="46.661637" lon="9.533981">
        <time>1970-01-01T00:00:00+00:00</time>
        <ele>1533.0</ele>
      </trkpt>
      <trkpt lat="46.662765" lon="9.534">
        <time>1970-01-01T00:00:00+00:00</time>
        <ele>1522.0</ele>
      </trkpt>
      <trkpt lat="46.663089" lon="9.534045">
        <time>1970-01-01T00:00:00+00:00</time>
        <ele>1521.0</ele>
      </trkpt>
      <trkpt lat="46.663407" lon="9.53398">
        <time>1970-01-01T00:00:00+00:00</time>
        <ele>1521.0</ele>
      </trkpt>
      <trkpt lat="46.663681" lon="9.533819">
        <time>1970-01-01T00:00:00+00:00</time>
        <ele>1521.0</ele>
      </trkpt>
      <trkpt lat="46.665163" lon="9.532577">
        <time>1970-01-01T00:00:00+00:00</time>
        <ele>1486.0</ele>
      </trkpt>
      <trkpt lat="46.665617" lon="9.5326">
        <time>1970-01-01T00:00:00+00:00</time>
        <ele>1476.0</ele>
      </trkpt>
      <trkpt lat="46.666014" lon="9.53242">
        <time>1970-01-01T00:00:00+00:00</time>
        <ele>1477.0</ele>
      </trkpt>
      <trkpt lat="46.666041" lon="9.532566">
        <time>1970-01-01T00:00:00+00:00</time>
        <ele>1471.0</ele>
      </trkpt>
      <trkpt lat="46.665992" lon="9.532841">
        <time>1970-01-01T00:00:00+00:00</time>
        <ele>1469.0</ele>
      </trkpt>
      <trkpt lat="46.665837" lon="9.533211">
        <time>1970-01-01T00:00:00+00:00</time>
        <ele>1468.0</ele>
      </trkpt>
      <trkpt lat="46.665397" lon="9.533809">
        <time>1970-01-01T00:00:00+00:00</time>
        <ele>1461.0</ele>
      </trkpt>
      <trkpt lat="46.665322" lon="9.533941">
        <time>1970-01-01T00:00:00+00:00</time>
        <ele>1461.0</ele>
      </trkpt>
      <trkpt lat="46.665262" lon="9.534233">
        <time>1970-01-01T00:00:00+00:00</time>
        <ele>1458.0</ele>
      </trkpt>
      <trkpt lat="46.665275" lon="9.534577">
        <time>1970-01-01T00:00:00+00:00</time>
        <ele>1454.0</ele>
      </trkpt>
      <trkpt lat="46.66525" lon="9.534927">
        <time>1970-01-01T00:00:00+00:00</time>
        <ele>1449.0</ele>
      </trkpt>
      <trkpt lat="46.665157" lon="9.535255">
        <time>1970-01-01T00:00:00+00:00</time>
        <ele>1442.0</ele>
      </trkpt>
      <trkpt lat="46.665023" lon="9.535453">
        <time>1970-01-01T00:00:00+00:00</time>
        <ele>1434.0</ele>
      </trkpt>
      <trkpt lat="46.664446" lon="9.535694">
        <time>1970-01-01T00:00:00+00:00</time>
        <ele>1441.0</ele>
      </trkpt>
      <trkpt lat="46.664372" lon="9.5358">
        <time>1970-01-01T00:00:00+00:00</time>
        <ele>1440.0</ele>
      </trkpt>
      <trkpt lat="46.664352" lon="9.535961">
        <time>1970-01-01T00:00:00+00:00</time>
        <ele>1435.0</ele>
      </trkpt>
      <trkpt lat="46.664371" lon="9.536208">
        <time>1970-01-01T00:00:00+00:00</time>
        <ele>1427.0</ele>
      </trkpt>
      <trkpt lat="46.664347" lon="9.53637">
        <time>1970-01-01T00:00:00+00:00</time>
        <ele>1424.0</ele>
      </trkpt>
      <trkpt lat="46.663997" lon="9.537357">
        <time>1970-01-01T00:00:00+00:00</time>
        <ele>1410.0</ele>
      </trkpt>
      <trkpt lat="46.663933" lon="9.537471">
        <time>1970-01-01T00:00:00+00:00</time>
        <ele>1409.0</ele>
      </trkpt>
      <trkpt lat="46.663834" lon="9.537549">
        <time>1970-01-01T00:00:00+00:00</time>
        <ele>1409.0</ele>
      </trkpt>
      <trkpt lat="46.663678" lon="9.537603">
        <time>1970-01-01T00:00:00+00:00</time>
        <ele>1410.0</ele>
      </trkpt>
      <trkpt lat="46.663577" lon="9.537666">
        <time>1970-01-01T00:00:00+00:00</time>
        <ele>1412.0</ele>
      </trkpt>
      <trkpt lat="46.66351" lon="9.537753">
        <time>1970-01-01T00:00:00+00:00</time>
        <ele>1413.0</ele>
      </trkpt>
      <trkpt lat="46.663493" lon="9.537855">
        <time>1970-01-01T00:00:00+00:00</time>
        <ele>1414.0</ele>
      </trkpt>
      <trkpt lat="46.663511" lon="9.537956">
        <time>1970-01-01T00:00:00+00:00</time>
        <ele>1413.0</ele>
      </trkpt>
      <trkpt lat="46.663704" lon="9.538187">
        <time>1970-01-01T00:00:00+00:00</time>
        <ele>1407.0</ele>
      </trkpt>
      <trkpt lat="46.663757" lon="9.538315">
        <time>1970-01-01T00:00:00+00:00</time>
        <ele>1404.0</ele>
      </trkpt>
      <trkpt lat="46.663777" lon="9.538502">
        <time>1970-01-01T00:00:00+00:00</time>
        <ele>1401.0</ele>
      </trkpt>
      <trkpt lat="46.663681" lon="9.539087">
        <time>1970-01-01T00:00:00+00:00</time>
        <ele>1393.0</ele>
      </trkpt>
      <trkpt lat="46.663493" lon="9.539573">
        <time>1970-01-01T00:00:00+00:00</time>
        <ele>1390.0</ele>
      </trkpt>
      <trkpt lat="46.663455" lon="9.539744">
        <time>1970-01-01T00:00:00+00:00</time>
        <ele>1390.0</ele>
      </trkpt>
      <trkpt lat="46.663428" lon="9.54">
        <time>1970-01-01T00:00:00+00:00</time>
        <ele>1389.0</ele>
      </trkpt>
      <trkpt lat="46.663422" lon="9.540227">
        <time>1970-01-01T00:00:00+00:00</time>
        <ele>1386.0</ele>
      </trkpt>
      <trkpt lat="46.663449" lon="9.540335">
        <time>1970-01-01T00:00:00+00:00</time>
        <ele>1383.0</ele>
      </trkpt>
      <trkpt lat="46.663598" lon="9.540613">
        <time>1970-01-01T00:00:00+00:00</time>
        <ele>1379.0</ele>
      </trkpt>
      <trkpt lat="46.663667" lon="9.540717">
        <time>1970-01-01T00:00:00+00:00</time>
        <ele>1378.0</ele>
      </trkpt>
      <trkpt lat="46.663567" lon="9.540871">
        <time>1970-01-01T00:00:00+00:00</time>
        <ele>1376.0</ele>
      </trkpt>
    </trkseg>
  </trk>
</gpx>
